Orbital Elements
Epoch 2024 Oct. 17.0 TT = JDT 2460600.5
T 2024 Mar. 12.23890 TT Rudenko
q 2.6927452 (2000.0) P Q
z -0.0004311 Peri. 199.91206 -0.86469164 -0.11303964
+/-0.0000005 Node 39.24041 -0.28753611 +0.91030882
e 1.0011607 Incl. 129.31344 -0.41186328 -0.39819580
From 2835 observations 2022 May 20-2024 Nov. 12, mean residual 0".9.
|